Flag for Canada Weather past 2 weeks in Granby, Quebec, Canada

Now
64 °F

Mild.


Feels Like: 64 °F
Forecast: 65 / 82 °F
Wind: 5 mph from South

Location: Frelighsburg

Current Time: May 29, 2015 at 10:27:45 PM

Latest Report: May 29, 2015 at 10:00 PM


Visibility: N/A

Pressure: 30.12 "Hg

Humidity: 73%

Dew point: 56 °F

Location of GranbyLocation

Historic Weather in Granby — Graph

°F

Granby temperature yesterday

Maximum temperature yesterday: 70 °F (at 12:00 PM)
Minimum temperature yesterday: 59 °F (at 11:00 PM)
Average temperature yesterday: 65 °F

Past Weeks' High & Low Weather Summary

 TemperatureHumidityPressure
High83 °F (May 26, 4:00 PM)100% (May 17, 6:00 AM)30.32 "Hg (May 17, 6:00 AM)
Low32 °F (May 23, 4:00 AM)22% (May 15, 2:00 PM)29.64 "Hg (May 19, 6:00 PM)
Average60 °F63%30.03 "Hg
* Reported May 14 9:00 PM — May 29 9:00 PM, Granby, Weather by CustomWeather, © 2015

Note: Actual official high and low records may vary slightly from our data, if they occured in-between our weather recording intervals... More about our weather records

Advertising

Granby weather history for previous 24 hours

 ConditionsComfort  
Time TempWeatherWind HumidityBarometerVisibility
9:00 PM
Fri, May 29
67 °FMild.5 mph66%30.12 "HgN/A
8:00 PM69 °FMild.2 mph65%30.14 "HgN/A
7:00 PM71 °FMild.2 mph62%30.15 "HgN/A
6:00 PM73 °FMild.1 mph59%30.18 "HgN/A
5:00 PM72 °FMild.3 mph49%30.20 "HgN/A
4:00 PM74 °FMild.3 mph48%30.22 "HgN/A
3:00 PM74 °FMild.3 mph50%30.23 "HgN/A
2:00 PM72 °FMild.5 mph53%30.25 "HgN/A
1:00 PM71 °FMild.3 mph52%30.25 "HgN/A
12:00 PM70 °FMild.3 mph54%30.27 "HgN/A
11:00 AM67 °FMild.3 mph71%30.28 "HgN/A
10:00 AM65 °FMild.6 mph74%30.30 "HgN/A
9:00 AM62 °FCool.3 mph82%30.32 "HgN/A
8:00 AM59 °FCool.3 mph88%30.32 "HgN/A
7:00 AM55 °FCool.3 mph94%30.32 "HgN/A
6:00 AM55 °FCool.5 mph86%30.29 "HgN/A
5:00 AM53 °FCool.5 mph93%30.27 "HgN/A
4:00 AM53 °FCool.2 mph93%30.27 "HgN/A
3:00 AM54 °FCool.2 mph93%30.28 "HgN/A
2:00 AM56 °FCool.2 mph94%30.28 "HgN/A
1:00 AM56 °FCool.2 mph94%30.27 "HgN/A
12:00 AM58 °FCool.7 mph99%30.27 "HgN/A
11:00 PM
Thu, May 28
59 °FCool.2 mph98%30.26 "HgN/A
10:00 PM60 °FCool.2 mph98%30.24 "HgN/A
Weather by CustomWeather, © 2015

See weather overviewHow to use our weather pages